EZY41MS EGGP-EGJJ

Flight info

Callsign EZY41MS
Flight time 0h 53m
Altitude 30000
Route REXAM N42 MIDJO P17 BEPHE DCT OSSEP DCT ELNIF DCT ZESPE DCT DAWLY DCT ABBEW/N0378F230 N90 ENHEL N862 SKERY
Aircraft A319/M-SDE3FGHIRWY/LB1

Departure

Time 2026-05-04 07:44
Airport Liverpool John Lennon Airport (EGGP)

Arrival

Time 2026-05-04 08:37
Airport Jersey Airport (EGJJ)
Time Latitude Longitude Altitude Speed Heading
2026-05-04 07:09 53.33586 -2.85194 89 ft 0 kts 265°
2026-05-04 07:34 53.33586 -2.85178 89 ft 4 kts 265°
2026-05-04 07:35 53.33588 -2.85135 89 ft 2 kts 265°
2026-05-04 07:35 53.33592 -2.85098 90 ft 4 kts 234°
2026-05-04 07:35 53.33613 -2.85074 89 ft 4 kts 187°
2026-05-04 07:35 53.33631 -2.85073 91 ft 3 kts 175°
2026-05-04 07:36 53.33605 -2.85070 92 ft 4 kts 175°
2026-05-04 07:36 53.33598 -2.85069 92 ft 0 kts 175°
2026-05-04 07:39 53.33596 -2.85069 89 ft 1 kts 175°
2026-05-04 07:39 53.33573 -2.85066 91 ft 5 kts 175°
2026-05-04 07:39 53.33549 -2.85063 91 ft 0 kts 175°
2026-05-04 07:40 53.33539 -2.85069 89 ft 5 kts 205°
2026-05-04 07:40 53.33519 -2.85167 89 ft 13 kts 265°
2026-05-04 07:40 53.33512 -2.85328 89 ft 15 kts 265°
2026-05-04 07:40 53.33503 -2.85504 89 ft 15 kts 265°
2026-05-04 07:41 53.33495 -2.85688 91 ft 17 kts 266°
2026-05-04 07:41 53.33487 -2.85890 89 ft 18 kts 265°
2026-05-04 07:41 53.33474 -2.86105 89 ft 19 kts 265°
2026-05-04 07:41 53.33465 -2.86330 89 ft 15 kts 266°
2026-05-04 07:42 53.33457 -2.86499 89 ft 15 kts 265°
2026-05-04 07:42 53.33442 -2.86664 90 ft 12 kts 246°
2026-05-04 07:42 53.33400 -2.86723 89 ft 7 kts 201°
2026-05-04 07:42 53.33349 -2.86726 89 ft 8 kts 168°
2026-05-04 07:43 53.33304 -2.86661 89 ft 9 kts 127°
2026-05-04 07:43 53.33290 -2.86548 90 ft 5 kts 84°
2026-05-04 07:43 53.33291 -2.86530 89 ft 3 kts 84°
2026-05-04 07:43 53.33294 -2.86477 87 ft 11 kts 86°
2026-05-04 07:44 53.33318 -2.85972 89 ft 84 kts 85°
2026-05-04 07:44 53.33384 -2.84577 110 ft 150 kts 85°
2026-05-04 07:44 53.33460 -2.82808 781 ft 154 kts 85°
2026-05-04 07:44 53.33547 -2.80991 1520 ft 163 kts 84°
2026-05-04 07:45 53.33545 -2.79063 2026 ft 184 kts 98°
2026-05-04 07:45 53.33152 -2.77329 2384 ft 209 kts 121°
2026-05-04 07:45 53.32008 -2.75564 2947 ft 238 kts 152°
2026-05-04 07:45 53.30314 -2.75035 3582 ft 262 kts 187°
2026-05-04 07:46 53.28614 -2.76195 3932 ft 269 kts 220°
2026-05-04 07:46 53.27569 -2.78683 4008 ft 267 kts 248°
2026-05-04 07:46 53.26889 -2.81569 4022 ft 269 kts 249°
2026-05-04 07:46 53.26105 -2.84430 4924 ft 271 kts 243°
2026-05-04 07:47 53.25107 -2.87118 6103 ft 274 kts 234°
2026-05-04 07:47 53.23866 -2.89557 7203 ft 277 kts 226°
2026-05-04 07:47 53.22453 -2.91788 8256 ft 281 kts 224°
2026-05-04 07:49 53.11213 -3.09051 13999 ft 341 kts 221°
2026-05-04 07:49 53.09203 -3.11171 14733 ft 347 kts 203°
2026-05-04 07:49 53.06860 -3.12134 15489 ft 351 kts 184°
2026-05-04 07:50 53.04450 -3.11775 16244 ft 354 kts 164°
2026-05-04 07:50 53.02214 -3.10112 17019 ft 357 kts 146°
2026-05-04 07:50 53.00238 -3.07580 17812 ft 359 kts 141°
2026-05-04 07:50 52.98278 -3.04981 18569 ft 362 kts 141°
2026-05-04 07:51 52.96294 -3.02349 18924 ft 365 kts 141°
2026-05-04 07:51 52.95623 -3.01459 18976 ft 365 kts 141°
2026-05-04 07:52 52.95280 -3.01004 19001 ft 365 kts 141°
2026-05-04 07:52 52.93695 -2.98909 18368 ft 370 kts 141°
2026-05-04 07:53 52.91724 -2.96313 18807 ft 362 kts 141°
2026-05-04 07:54 52.77065 -2.80052 20609 ft 373 kts 167°
2026-05-04 07:55 52.74494 -2.79322 21283 ft 377 kts 170°
2026-05-04 07:55 52.71888 -2.78625 21950 ft 381 kts 170°
2026-05-04 07:55 52.69263 -2.77923 22609 ft 384 kts 170°
2026-05-04 07:55 52.66609 -2.77213 23252 ft 389 kts 170°
2026-05-04 07:56 52.63930 -2.76496 23856 ft 392 kts 170°
2026-05-04 07:56 52.61212 -2.75921 24373 ft 397 kts 176°
2026-05-04 07:56 52.58430 -2.76008 24892 ft 401 kts 182°
2026-05-04 07:56 52.55637 -2.76257 25415 ft 404 kts 182°
2026-05-04 07:57 52.52812 -2.76507 25918 ft 407 kts 182°
2026-05-04 07:57 52.49974 -2.76755 26425 ft 410 kts 182°
2026-05-04 07:57 52.47112 -2.77006 26916 ft 414 kts 182°
2026-05-04 07:57 52.44227 -2.77261 27408 ft 417 kts 182°
2026-05-04 07:58 52.41326 -2.77515 27891 ft 420 kts 182°
2026-05-04 07:58 52.38393 -2.77770 28365 ft 423 kts 182°
2026-05-04 07:58 52.35440 -2.78025 28831 ft 427 kts 182°
2026-05-04 07:58 52.32466 -2.78279 29289 ft 430 kts 182°
2026-05-04 07:59 52.29465 -2.78532 29744 ft 433 kts 182°
2026-05-04 07:59 52.26446 -2.78788 30011 ft 435 kts 182°
2026-05-04 07:59 52.23466 -2.79044 30040 ft 420 kts 182°
2026-05-04 07:59 52.20603 -2.79294 30042 ft 405 kts 182°
2026-05-04 08:00 52.15044 -2.79766 30042 ft 397 kts 182°
2026-05-04 08:02 51.93196 -2.81613 30053 ft 391 kts 182°
2026-05-04 08:02 51.87772 -2.82073 30061 ft 390 kts 182°
2026-05-04 08:03 51.82369 -2.82733 30073 ft 389 kts 186°
2026-05-04 08:03 51.77022 -2.83934 30084 ft 388 kts 188°
2026-05-04 08:04 51.71753 -2.85197 30083 ft 386 kts 188°
2026-05-04 08:04 51.66429 -2.86380 30081 ft 386 kts 187°
2026-05-04 08:05 51.61116 -2.87500 30073 ft 384 kts 187°
2026-05-04 08:05 51.55845 -2.88675 30064 ft 382 kts 192°
2026-05-04 08:06 51.50818 -2.91405 30028 ft 381 kts 200°
2026-05-04 08:06 51.45861 -2.94394 30029 ft 380 kts 200°
2026-05-04 08:08 51.26978 -3.05675 30040 ft 376 kts 199°
2026-05-04 08:11 51.04967 -3.18702 30018 ft 374 kts 199°
2026-05-04 08:11 50.97651 -3.22998 30011 ft 374 kts 199°
2026-05-04 08:12 50.92776 -3.25858 30002 ft 373 kts 199°
2026-05-04 08:12 50.87932 -3.28690 29994 ft 373 kts 199°
2026-05-04 08:13 50.83056 -3.31534 29992 ft 374 kts 199°
2026-05-04 08:13 50.78180 -3.34378 29994 ft 374 kts 199°
2026-05-04 08:14 50.73290 -3.37222 29994 ft 374 kts 199°
2026-05-04 08:16 50.53520 -3.47024 30004 ft 372 kts 182°
2026-05-04 08:16 50.50941 -3.46810 30006 ft 372 kts 171°
2026-05-04 08:16 50.48426 -3.45826 30005 ft 373 kts 161°
2026-05-04 08:17 50.43787 -3.42270 30000 ft 373 kts 154°
2026-05-04 08:17 50.39169 -3.38536 29998 ft 373 kts 154°
2026-05-04 08:19 50.22974 -3.25715 29675 ft 370 kts 162°
2026-05-04 08:19 50.20505 -3.24676 29189 ft 365 kts 168°
2026-05-04 08:20 50.18043 -3.23802 28725 ft 361 kts 168°
2026-05-04 08:20 50.15603 -3.22928 28290 ft 357 kts 168°
2026-05-04 08:20 50.13197 -3.22062 27856 ft 354 kts 168°
2026-05-04 08:20 50.10837 -3.21212 27437 ft 351 kts 168°
2026-05-04 08:21 50.08477 -3.20361 27021 ft 347 kts 168°
2026-05-04 08:21 50.06131 -3.19513 26611 ft 343 kts 168°
2026-05-04 08:21 50.03814 -3.18674 26198 ft 340 kts 168°
2026-05-04 08:21 50.01530 -3.17822 25790 ft 336 kts 165°
2026-05-04 08:22 49.99354 -3.16499 25369 ft 336 kts 155°
2026-05-04 08:22 49.97366 -3.14615 24947 ft 334 kts 149°
2026-05-04 08:24 49.84140 -3.01098 21834 ft 315 kts 149°
2026-05-04 08:24 49.82313 -2.99244 21418 ft 313 kts 149°
2026-05-04 08:24 49.80522 -2.97425 21009 ft 311 kts 149°
2026-05-04 08:24 49.78719 -2.95595 20597 ft 309 kts 149°
2026-05-04 08:25 49.76925 -2.93778 20193 ft 307 kts 149°
2026-05-04 08:25 49.75136 -2.91965 19780 ft 306 kts 149°
2026-05-04 08:25 49.73378 -2.90187 19386 ft 305 kts 149°
2026-05-04 08:25 49.71603 -2.88395 18986 ft 304 kts 149°
2026-05-04 08:26 49.69834 -2.86606 18592 ft 304 kts 149°
2026-05-04 08:27 49.57179 -2.73861 14908 ft 308 kts 149°
2026-05-04 08:28 49.55390 -2.72066 14369 ft 307 kts 149°
2026-05-04 08:28 49.53606 -2.70279 13839 ft 305 kts 149°
2026-05-04 08:28 49.51832 -2.68502 13256 ft 303 kts 148°
2026-05-04 08:28 49.50067 -2.66736 12660 ft 302 kts 148°
2026-05-04 08:29 49.48312 -2.64979 12093 ft 300 kts 148°
2026-05-04 08:29 49.46568 -2.63236 11529 ft 298 kts 148°
2026-05-04 08:29 49.44838 -2.61508 10976 ft 296 kts 148°
2026-05-04 08:31 49.32350 -2.52364 7351 ft 278 kts 156°
2026-05-04 08:33 49.19759 -2.47797 4036 ft 259 kts 175°
2026-05-04 08:33 49.18135 -2.46849 3531 ft 254 kts 140°
2026-05-04 08:35 49.19729 -2.32218 1905 ft 181 kts 82°
2026-05-04 08:35 49.19888 -2.30346 1623 ft 174 kts 82°
2026-05-04 08:35 49.20038 -2.28560 1388 ft 165 kts 82°
2026-05-04 08:35 49.20179 -2.26884 1172 ft 150 kts 81°
2026-05-04 08:37 49.20828 -2.19232 286 ft 71 kts 82°
2026-05-04 08:37 49.20871 -2.18720 283 ft 33 kts 83°
2026-05-04 08:37 49.20883 -2.18441 281 ft 22 kts 107°
2026-05-04 08:38 49.20785 -2.18400 286 ft 15 kts 213°
2026-05-04 08:38 49.20731 -2.18536 284 ft 16 kts 261°
2026-05-04 08:38 49.20716 -2.18710 284 ft 17 kts 263°
2026-05-04 08:40 49.20600 -2.19901 284 ft 12 kts 249°
2026-05-04 08:40 49.20523 -2.19928 284 ft 13 kts 173°
2026-05-04 08:40 49.20437 -2.19904 287 ft 12 kts 138°
2026-05-04 08:41 49.20439 -2.19777 284 ft 13 kts 83°
2026-05-04 08:41 49.20441 -2.19652 284 ft 10 kts 92°
2026-05-04 08:41 49.20473 -2.19622 284 ft 2 kts
2026-05-04 08:41 49.20485 -2.19618 287 ft 0 kts 18°
2026-05-04 08:42 49.20489 -2.19616 286 ft 2 kts 17°